Location: Maccacari
(45.1333°N, 11.1333°E)
Time: 00:45:10
(UTC+00:00)

A-11 Canister half - Pass Details

Date: 26 January 2021
Orbit: 1525 x 1684 km, 47.3° (Epoch: 07 March)

Event Time Altitude Azimuth Distance (km) Brightness Sun altitude
Rises 17:53:13 0° 288° (WNW) 4,723 12.7 -17.3°
Reaches altitude 10° 17:56:14 10° 287° (WNW) 3,755 12.0 -17.9°
Maximum altitude 18:05:48 83° 202° (SSW) 1,613 9.1 -19.5°
Enters shadow 18:12:46 23° 117° (ESE) 2,976 10.0 -20.8°
Drops below altitude 10° 18:15:42 10° 116° (ESE) 3,875 - -21.3°
Sets 18:18:52 0° 116° (ESE) 4,879 - -21.8°
